| time (UTC) | temp F | wind direction | speed knots | gust knots | rain 1hr in | rain 24hr in | rain mn in | humidity % | barometer mb |
| 20260507213020 | 83 | 360 | 5.2 | 12.2 | 0.00 | 0.00 | 0.00 | 79 | 1014.3 |
| 20260507211520 | 83 | 360 | 7.0 | 12.2 | 0.00 | 0.00 | 0.00 | 78 | 1014.1 |
| 20260507210018 | 83 | 360 | 7.0 | 11.3 | 0.00 | 0.00 | 0.00 | 78 | 1014.3 |
| 20260507204517 | 84 | 360 | 4.3 | 9.6 | 0.00 | 0.00 | 0.00 | 77 | 1014.4 |
| 20260507203017 | 83 | 360 | 6.1 | 10.4 | 0.00 | 0.00 | 0.00 | 76 | 1014.5 |
| 20260507201517 | 84 | 195 | 5.2 | 9.6 | 0.00 | 0.00 | 0.00 | 77 | 1014.4 |
| 20260507200014 | 83 | 360 | 7.0 | 11.3 | 0.00 | 0.00 | 0.00 | 78 | 1014.5 |
| 20260507194513 | 83 | 360 | 5.2 | 13.0 | 0.00 | 0.00 | 0.00 | 78 | 1014.8 |
| 20260507193019 | 83 | 184 | 6.1 | 11.3 | 0.00 | 0.00 | 0.00 | 76 | 1014.8 |
| 20260507191510 | 84 | 360 | 8.7 | 13.9 | 0.00 | 0.00 | 0.00 | 75 | 1014.8 |
| 20260507190006 | 83 | 360 | 7.0 | 15.6 | 0.00 | 0.00 | 0.00 | 79 | 1015.2 |
| 20260507184507 | 83 | 188 | 8.7 | 14.8 | 0.00 | 0.00 | 0.00 | 79 | 1014.6 |
| 20260507183005 | 82 | 188 | 10.4 | 15.6 | 0.00 | 0.00 | 0.00 | 78 | 1015.0 |
| 20260507181501 | 82 | 180 | 7.8 | 14.8 | 0.00 | 0.00 | 0.00 | 79 | 1015.2 |
| 20260507180108 | 83 | 201 | 9.6 | 13.9 | 0.00 | 0.00 | 0.00 | 79 | 1015.4 |
| 20260507174636 | 84 | 184 | 7.0 | 14.8 | 0.00 | 0.00 | 0.00 | 76 | 1015.5 |
| 20260507173059 | 84 | 184 | 9.6 | 17.4 | 0.00 | 0.00 | 0.00 | 75 | 1015.7 |
| 20260507171616 | 85 | 360 | 8.7 | 12.2 | 0.00 | 0.00 | 0.00 | 75 | 1016.0 |
| 20260507170058 | 84 | 180 | 7.8 | 13.9 | 0.00 | 0.00 | 0.00 | 76 | 1016.2 |
| 20260507164556 | 85 | 360 | 7.0 | 13.9 | 0.00 | 0.00 | 0.00 | 77 | 1016.4 |
| 20260507163055 | 84 | 360 | 8.7 | 15.6 | 0.00 | 0.00 | 0.00 | 75 | 1016.6 |
| 20260507161556 | 84 | 195 | 9.6 | 14.8 | 0.00 | 0.00 | 0.00 | 75 | 1016.7 |
| 20260507160114 | 84 | 360 | 7.8 | 13.0 | 0.00 | 0.00 | 0.00 | 75 | 1016.8 |
| 20260507154552 | 84 | 205 | 7.8 | 14.8 | 0.00 | 0.00 | 0.00 | 76 | 1016.9 |
| 20260507153051 | 84 | 187 | 10.4 | 15.6 | 0.00 | 0.00 | 0.00 | 77 | 1016.9 |
| 20260507151557 | 84 | 118 | 8.7 | 14.8 | 0.00 | 0.00 | 0.00 | 77 | 1017.0 |
| 20260507150050 | 84 | 360 | 10.4 | 15.6 | 0.00 | 0.00 | 0.00 | 75 | 1017.1 |
| 20260507144551 | 84 | 360 | 10.4 | 14.8 | 0.00 | 0.00 | 0.00 | 74 | 1017.4 |
| 20260507143052 | 84 | 360 | 8.7 | 16.5 | 0.00 | 0.00 | 0.00 | 77 | 1017.1 |
| 20260507141546 | 84 | 360 | 8.7 | 13.9 | 0.00 | 0.00 | 0.00 | 76 | 1017.4 |
| 20260507140048 | 83 | 360 | 8.7 | 15.6 | 0.00 | 0.00 | 0.00 | 77 | 1017.3 |
| 20260507134543 | 83 | 360 | 8.7 | 16.5 | 0.00 | 0.00 | 0.00 | 77 | 1017.2 |
| 20260507133042 | 83 | 360 | 7.8 | 16.5 | 0.00 | 0.00 | 0.00 | 79 | 1017.2 |
| 20260507131607 | 83 | 360 | 10.4 | 15.6 | 0.00 | 0.00 | 0.00 | 78 | 1017.0 |
| 20260507130037 | 82 | 102 | 10.4 | 14.8 | 0.00 | 0.00 | 0.00 | 77 | 1017.1 |
| 20260507124540 | 82 | 360 | 7.8 | 12.2 | 0.00 | 0.00 | 0.00 | 78 | 1016.9 |
| 20260507123041 | 81 | 111 | 10.4 | 13.9 | 0.00 | 0.00 | 0.00 | 77 | 1016.8 |
| 20260507121531 | 81 | 360 | 3.5 | 10.4 | 0.00 | 0.00 | 0.00 | 79 | 1016.6 |
| 20260507120032 | 80 | 360 | 5.2 | 10.4 | 0.00 | 0.00 | 0.00 | 79 | 1016.4 |
| 20260507114526 | 79 | 101 | 5.2 | 8.7 | 0.00 | 0.00 | 0.00 | 80 | 1016.4 |
| 20260507113055 | 78 | 360 | 3.5 | 6.1 | 0.00 | 0.00 | 0.00 | 81 | 1016.4 |
| 20260507111520 | 77 | 360 | 2.6 | 5.2 | 0.00 | 0.00 | 0.00 | 82 | 1016.4 |
| 20260507110017 | 77 | 360 | 4.3 | 4.3 | 0.00 | 0.00 | 0.00 | 1016.4 | |
| 20260507104518 | 0 | 0.0 | 0.0 | 0.00 | 0.00 | 0.00 | 1016.0 | ||
| 20260507103008 | 0 | 0.0 | 0.0 | 0.00 | 0.00 | 0.00 | 1015.8 | ||
| 20260507101503 | 0 | 0.0 | 0.0 | 0.00 | 0.00 | 0.00 | 1015.6 | ||
| 20260507094605 | 0 | 0.0 | 0.0 | 0.00 | 0.00 | 0.00 | 1015.6 | ||
| 20260507093051 | 0 | 0.0 | 0.0 | 0.00 | 0.00 | 0.00 | 1015.6 | ||
| 20260507091548 | 0 | 0.0 | 0.0 | 0.00 | 0.00 | 0.00 | 1015.6 | ||
| 20260507090044 | 0 | 0.0 | 0.0 | 0.00 | 0.00 | 0.00 | 1015.7 | ||
| 20260507084550 | 0 | 0.0 | 0.0 | 0.00 | 0.00 | 0.00 | 1015.7 | ||
| 20260507083034 | 0 | 0.0 | 0.0 | 0.00 | 0.00 | 0.00 | 1015.6 | ||
| 20260507081529 | 0 | 0.0 | 0.0 | 0.00 | 0.00 | 0.00 | 1015.4 | ||
| 20260507080024 | 0 | 0.0 | 0.0 | 0.00 | 0.00 | 0.00 | 1015.3 | ||
| 20260507074520 | 0 | 0.0 | 0.0 | 0.00 | 0.00 | 0.00 | 1015.4 | ||
| 20260507073022 | 0 | 0.0 | 0.0 | 0.00 | 0.00 | 0.00 | 1015.5 | ||
| 20260507071517 | 0 | 0.0 | 0.0 | 0.00 | 0.00 | 0.00 | 1015.7 | ||
| 20260507070016 | 0 | 0.0 | 0.0 | 0.00 | 0.00 | 0.00 | 1015.8 | ||
| 20260507064504 | 0 | 0.0 | 0.0 | 0.00 | 0.00 | 0.00 | 1016.0 | ||
| 20260507063059 | 0 | 0.0 | 0.0 | 0.00 | 0.00 | 0.00 | 1016.2 | ||
| 20260507063001 | 0 | 0.0 | 0.0 | 0.00 | 0.00 | 0.00 | 1016.2 | ||
| 20260507061555 | 0 | 0.0 | 0.0 | 0.00 | 0.00 | 0.00 | 1016.4 | ||
| 20260507060050 | 0 | 0.0 | 0.0 | 0.00 | 0.00 | 0.00 | 1016.5 | ||
| 20260507054546 | 0 | 0.0 | 0.0 | 0.00 | 0.00 | 0.00 | 1016.6 | ||
| 20260507053042 | 0 | 0.0 | 0.0 | 0.00 | 0.00 | 0.00 | 1016.8 | ||
| 20260507051537 | 0 | 0.0 | 0.0 | 0.00 | 0.00 | 0.00 | 1017.0 | ||
| 20260507050058 | 0 | 0.0 | 0.0 | 0.00 | 0.00 | 0.00 | 1017.2 | ||
| 20260507044536 | 0 | 0.0 | 0.0 | 0.00 | 0.00 | 0.00 | 1017.5 | ||
| 20260507043024 | 0 | 0.0 | 0.0 | 0.00 | 0.00 | 0.00 | 1017.8 | ||
| 20260507041519 | 0 | 0.0 | 0.0 | 0.00 | 0.00 | 0.00 | 1017.8 | ||
| 20260507040018 | 0 | 0.0 | 0.0 | 0.00 | 0.00 | 0.00 | 1017.7 | ||
| 20260507034512 | 0 | 0.0 | 0.0 | 0.00 | 0.00 | 0.00 | 1017.9 | ||
| 20260507033007 | 0 | 0.0 | 0.0 | 0.00 | 0.00 | 0.00 | 1018.0 | ||
| 20260507031506 | 0 | 0.0 | 0.0 | 0.00 | 0.00 | 0.00 | 1018.1 | ||
| 20260507030059 | 0 | 0.0 | 0.0 | 0.00 | 0.00 | 0.00 | 1018.2 | ||
| 20260507024555 | 0 | 0.0 | 0.0 | 0.00 | 0.00 | 0.00 | 1018.1 | ||
| 20260507023050 | 0 | 0.0 | 0.0 | 0.00 | 0.00 | 0.00 | 1018.1 | ||
| 20260507021556 | 0 | 0.0 | 0.0 | 0.00 | 0.00 | 0.00 | 1017.9 | ||
| 20260507020042 | 0 | 0.0 | 0.0 | 0.00 | 0.00 | 0.00 | 1017.9 | ||
| 20260507014537 | 0 | 0.0 | 0.0 | 0.00 | 0.00 | 0.00 | 1017.8 | ||
| 20260507013036 | 0 | 0.0 | 0.0 | 0.00 | 0.00 | 0.00 | 1017.7 | ||
| 20260507011532 | 0 | 0.0 | 0.0 | 0.00 | 0.00 | 0.00 | 1017.6 | ||
| 20260507010037 | 0 | 0.0 | 0.0 | 0.00 | 0.00 | 0.00 | 1017.5 | ||
| 20260507004522 | 0 | 0.0 | 0.0 | 0.00 | 0.00 | 0.00 | 1017.4 | ||
| 20260507003015 | 0 | 0.0 | 0.0 | 0.00 | 0.00 | 0.00 | 1017.3 | ||
| 20260507001511 | 0 | 0.0 | 0.0 | 0.00 | 0.00 | 0.00 | 1017.1 | ||
| 20260507000007 | 0 | 0.0 | 0.0 | 0.00 | 0.00 | 0.00 | 1017.0 | ||
| 20260506234505 | 0 | 0.0 | 0.0 | 0.00 | 0.00 | 0.00 | 1016.8 | ||
| 20260506233100 | 0 | 0.0 | 0.0 | 0.00 | 0.00 | 0.00 | 1016.8 | ||
| 20260506231556 | 0 | 0.0 | 0.0 | 0.00 | 0.00 | 0.00 | 1016.5 | ||
| 20260506230050 | 0 | 0.0 | 0.0 | 0.00 | 0.00 | 0.00 | 1016.4 | ||
| 20260506224548 | 81 | 360 | 6.1 | 10.4 | 0.00 | 0.00 | 0.00 | 79 | 1016.2 |
| 20260506223055 | 82 | 164 | 5.2 | 9.6 | 0.00 | 0.00 | 0.00 | 80 | 1016.1 |
| 20260506221545 | 82 | 360 | 6.1 | 10.4 | 0.00 | 0.00 | 0.00 | 78 | 1016.0 |
| 20260506220045 | 82 | 360 | 7.8 | 13.0 | 0.00 | 0.00 | 0.00 | 78 | 1015.8 |
| 20260506214545 | 83 | 360 | 6.1 | 12.2 | 0.00 | 0.00 | 0.00 | 78 | 1015.8 |